TOS R/B, 22797

Orbit data source: Space-Track

TOS R/B, 22797 is space debris in HEO originally from an American launch on Sun, 12 Sep 1993 UTC launched from the Air Force Eastern Test Range (AFETR). Debris objects in space refer to the collection of defunct objects orbiting the Earth. Examples of debris include non-operational satellites, rocket bodies, and fragments generated from explosions, collisions, or faulty payload assembly.

Loading next visibility...
Identifier
22797, 1993-058D
Orbit
HEO
Last TLE update
1 day ago
Origin
Manufacturer
MMA/CSD
Mission
Spacecraft
Bus & Motor
ORBUS 21, Unknown motor
Mass
9,366 kg wet, 1,195 kg dry
Launch date (UTC)
1993-09-12 (32 years ago)
Launch vehicle
Unknown
Launch site
Air Force Eastern Test Range (AFETR)
Object type
Payload
Rocket body
Debris
Shape & HBR
Cyl + Cone, 3.3 m
Radar Cross Section
8.215 m², Large (>1 m²)

Expand to show TLE details & history

TLE from 1 day ago
0 TOS R/B
1 22797U 93058D   25189.08835662  .00000230  00000-0  28850-3 0  9996
2 22797  14.6492 192.1951 7362816 210.0153  71.3841  2.12935650241057
Epoch: 2025-07-08T02:07Z
TLE epoch observation values (Epoch: 2025-07-08T02:07:14.011Z)
Latitude
-0.00035°
Longitude
-126.03164°
Altitude
25,767.074 km
Speed
3.03 km/s
True Right ascension
12h 48m 15s
True Declination
0° 00' 01"
Sunlit
Object was in daylight at epoch
Visualization orbit readout
Latitude
-5.48873°
Longitude
-148.2045°
Altitude
14,452.629 km
Speed
4.759 km/s
Apparent Right ascension
11h 15m 21s
Apparent Declination
-13° 18' 30"
Sunlit
Object is in daylight
Visualization observer readout
Local Sidereal Time
22:57:29
Azimuth
350.36° N
Elevation
-63.104°
Doppler factor
1
Orbital elements
Apogee altitude
37,942.811 km
Perigee altitude
353.634 km
Semi-major axis
25,526.359 km
Eccentricity
0.73628
Inclination
14.6492°
RAAN
192.1951°
Arg. of periapsis
210.0153°
True anomaly
Unknown
Mean anomaly
71.3841°
Eccentric anomaly
Unknown
Mean motion
0.53218 °/min
Orbital period
676.46 mins
BSTAR
0.0002885
Loading maneuver chart data...
Loading SW <> Apogee altitude chart data...
Loading historical data...
Loading historical data...
Loading historical data...
Loading historical data...
Loading historical data...
Loading historical data...
Loading historical data...

TOS R/B Visibility forecast

Observer location: undefined°, undefined°

Span
Click to sort rows by Start time (UTC) header in descending order
Start Az.
Max El. time (UTC)
Max El. Az.
Max El.
End time (UTC)
End Az.
625 mins2025-07-09 21:30:26.916Z184.255° SSW2025-07-10 03:27:26.916Z193.04° SSW38.741°2025-07-10 07:55:26.916Z134.761° SE
|